Regional Weather Roundup
Issued by NWS

Home | Current Version | Previous Version | Graphics & Text | Print | Product List | Glossary On
Versions: 1 2 3 4 5 6 7 8 9 10 11 12 13 14 15 16 17 18 19 20 21 22 23 24 25 26 27 28 29 30 31 32 33 34 35 36 37 38 39 40 41 42 43 44 45 46 47 48 49 50
000
ASUS43 KLSX 300859
RWRMO

WEATHER SUMMARY FOR MISSOURI
NATIONAL WEATHER SERVICE SPRINGFIELD MO
400 AM CDT MON MAR 30 2015

NOTE: "FAIR" INDICATES FEW OR NO CLOUDS BELOW 12,000 FEET WITH NO
       SIGNIFICANT WEATHER AND/OR OBSTRUCTIONS TO VISIBILITY.
       CURRENT SKY AND/OR WEATHER CONDITIONS ARE NOT AVAILABLE FOR
       CHILLICOTHE AND FARMINGTON.

MOZ001>031-035>038-043-044-053-054-301000-
...NORTHERN AND WESTERN MISSOURI...

CITY           SKY/WX    TMP DP  RH WIND       PRES   REMARKS
KANSAS CTY INT CLEAR     41  31  67 SW7       30.17S
KANSAS C DTWN  CLEAR     41  35  79 CALM      30.17F
LEE`S SUMMIT   CLEAR     43  34  70 SW5       30.17F
CHILLICOTHE      N/A     35  30  82 CALM      30.17R
KIRKSVILLE     PTCLDY    31  28  89 W5        30.14S WCI  26

$$
MOZ066>068-077>081-088>096-101>105-301000-
...SOUTHWEST MISSOURI...

CITY           SKY/WX    TMP DP  RH WIND       PRES   REMARKS
SPRINGFIELD    FOG       37  36  96 CALM      30.16F VSB 3/4
JOPLIN         CLEAR     39  37  92 CALM      30.20R

$$
MOZ032>034-039>042-045>050-055>058-069>072-301000-
...CENTRAL MISSOURI...

CITY           SKY/WX    TMP DP  RH WIND       PRES   REMARKS
COLUMBIA       CLEAR     44  36  73 NW6       30.14S
JEFFERSON CITY CLEAR     37  34  89 W5        30.15S
ROLLA          CLEAR     44  36  73 W6        30.13R
SEDALIA        PTCLDY    45  34  65 W5        30.16S
OSAGE BEACH    CLEAR     36  34  93 CALM      30.15F

$$
MOZ051-052-059>065-301000-
...EAST CENTRAL MISSOURI...

CITY           SKY/WX    TMP DP  RH WIND       PRES   REMARKS
ST LOUIS INTL  CLEAR     43  36  76 W7        30.13R
SPIRIT OF STL  CLEAR     34  32  92 SW3       30.13R
ST CHARLES     CLEAR     39  35  86 W7        30.12R

$$
MOZ072>076-082>087-097>100-106>115-301000-
...SOUTH CENTRAL AND SOUTHEAST MISSOURI...

CITY           SKY/WX    TMP DP  RH WIND       PRES   REMARKS
CAPE GIRARDEAU CLEAR     47  40  76 NW7       30.09S
FARMINGTON     CLEAR     45  36  70 NW5       30.14S
POPLAR BLUFF   CLEAR     47  39  74 W5        30.09S
WEST PLAINS    CLEAR     46  38  73 N5        30.15S

$$



USA.gov is the U.S. government's official web portal to all federal, state and local government web resources and services.